Danvers, MA

1:25 PM EDT on July 24, 2016 (GMT -0400)
Beverly Municipal

Weather History for KBVY - June, 2014

Change the Weather History Date:

Saturday, June 7, 2014

  Actual Average Record
Temperature  
Mean Temperature 67 °F -  
Max Temperature 82 °F 69 °F 93 °F (1999)
Min Temperature 53 °F 49 °F 1 °F (2013)
Cooling Degree Days 2    
Growing Degree Days 17 (Base 50)    
Moisture  
Dew Point 54 °F    
Average Humidity 64    
Maximum Humidity 89    
Minimum Humidity 39    
Precipitation  
Precipitation 0.00 in - - ()
Sea Level Pressure  
Sea Level Pressure 29.87 in    
Wind  
Wind Speed 6 mph (WNW)    
Max Wind Speed 10 mph    
Max Gust Speed -    
Visibility 10 miles    
Events      
Averages and records for this station are not official NWS values.
T = Trace of Precipitation, MM = Missing Value Source: NWS Daily Summary

Daily Weather History Graph

Daily Weather History Graph

Search for Another Location

Airport or City:

Trip Planner

Search our weather history database for the weather conditions in past years. The results will help you decide how hot, cold, wet, or windy it might be!

Date:

Astronomy

Jun. 07, 2014 Rise Set
Actual Time 5:06 AM EDT 8:18 PM EDT
Civil Twilight 4:31 AM EDT 8:53 PM EDT
Nautical Twilight 3:47 AM EDT 9:38 PM EDT
Astronomical Twilight 2:53 AM EDT 10:32 PM EDT
Moon 2:26 PM EDT (6/7) 1:34 AM EDT (6/7)
Length of Visible Light 16h 21m
Length of Day
15h 12m
Waxing Gibbous, 67% of the Moon is Illuminated
Jun 7
Waxing Gibbous
Jun 13
Full
Jun 19
Last Quarter
Jun 27
New
Jul 5
First Quarter

Hourly Weather History & Observations

Time (EDT) Temp. Heat Index Dew Point Humidity Pressure Visibility Wind Dir Wind Speed Gust Speed Precip Events Conditions
12:53 AM 59.0 °F - 52.0 °F 78% 29.84 in 10.0 mi WNW 5.8 mph - N/A   Clear
1:53 AM 57.0 °F - 51.1 °F 81% 29.85 in 10.0 mi WNW 5.8 mph - N/A   Clear
2:53 AM 57.9 °F - 51.1 °F 78% 29.86 in 10.0 mi WNW 4.6 mph - N/A   Clear
3:53 AM 53.1 °F - 50.0 °F 89% 29.86 in 10.0 mi West 4.6 mph - N/A   Clear
4:53 AM 53.6 °F - 50.0 °F 88% 29.88 in 10.0 mi WNW 4.6 mph - N/A   Clear
5:53 AM 55.9 °F - 52.0 °F 87% 29.88 in 10.0 mi WNW 5.8 mph - N/A   Clear
6:53 AM 62.1 °F - 54.0 °F 75% 29.88 in 10.0 mi NW 6.9 mph - N/A   Clear
7:53 AM 66.0 °F - 55.0 °F 68% 29.89 in 10.0 mi NW 10.4 mph - N/A   Clear
8:53 AM 69.8 °F - 55.4 °F 60% 29.91 in 10.0 mi WNW 8.1 mph - N/A   Clear
9:53 AM 73.4 °F - 57.2 °F 57% 29.92 in 10.0 mi NNW 6.9 mph - N/A   Clear
10:53 AM 75.2 °F - 55.4 °F 50% 29.92 in 10.0 mi NNW 8.1 mph - N/A   Clear
11:53 AM 78.1 °F - 55.0 °F 45% 29.90 in 10.0 mi Variable 6.9 mph - N/A   Partly Cloudy
12:53 PM 79.0 °F - 53.1 °F 40% 29.88 in 10.0 mi West 6.9 mph - N/A   Partly Cloudy
1:53 PM 80.1 °F 80.0 °F 54.0 °F 40% 29.87 in 10.0 mi NE 3.5 mph - N/A   Partly Cloudy
2:53 PM 80.1 °F 79.9 °F 53.1 °F 39% 29.87 in 10.0 mi NW 4.6 mph - N/A   Partly Cloudy
3:53 PM 81.0 °F 81.0 °F 57.0 °F 44% 29.86 in 10.0 mi ESE 6.9 mph - N/A   Mostly Cloudy
4:53 PM 80.1 °F 80.4 °F 57.0 °F 45% 29.85 in 10.0 mi South 8.1 mph - N/A   Partly Cloudy
5:53 PM 75.9 °F - 57.0 °F 52% 29.84 in 10.0 mi SE 10.4 mph - N/A   Clear
6:53 PM 72.0 °F - 55.0 °F 55% 29.85 in 10.0 mi SE 5.8 mph - N/A   Clear
7:53 PM 70.0 °F - 55.9 °F 61% 29.85 in 10.0 mi SE 3.5 mph - N/A   Clear
8:53 PM 66.9 °F - 55.9 °F 68% 29.86 in 10.0 mi Calm Calm - N/A   Clear
9:53 PM 64.9 °F - 57.0 °F 75% 29.88 in 10.0 mi Calm Calm - N/A   Clear
10:53 PM 61.0 °F - 55.9 °F 83% 29.88 in 10.0 mi NNW 3.5 mph - N/A   Clear
11:53 PM 61.0 °F - 55.9 °F 83% 29.90 in 10.0 mi Calm Calm - N/A   Clear